Regional Weather Roundup
Issued by NWS Grand Forks, ND

Home | Current Version | Previous Version | Text Only | Print | Product List | Glossary On
Versions: 1 2 3 4 5 6 7 8 9 10 11 12 13 14 15 16 17 18 19 20 21 22 23 24 25 26 27 28 29 30 31 32 33 34 35 36 37 38 39 40 41 42 43 44 45 46 47 48 49 50
000
ASUS43 KFGF 231810
RWRFGF
PRAIRIE TO PINES  WEATHER ROUNDUP
NATIONAL WEATHER SERVICE EASTERN NORTH DAKOTA/GRAND FORKS ND
100 PM CDT SAT AUG 23 2014

 **SATELLITE DATA USED TO AUGMENT SKY COVER AT AUTOMATED STATIONS**
 *****  WEATHER ACROSS EASTERN NORTH DAKOTA  *****

CITY           SKY/WX    TMP DP  RH WIND       PRES   REMARKS
GRAND FORKS    CLOUDY    70  66  88 N12       29.99F
6HR MIN TEMP:  59; 6HR MAX TEMP:  69; 6HR PCP:  0.01;

GRAND FRKS AFB CLOUDY    64  64 100 NE9       30.01F
GRAND FRKS NWS   N/A     61 N/A N/A N7          N/A
DEVILS LAKE    CLOUDY    61  55  82 NE14      30.00F
6HR MIN TEMP:  57; 6HR MAX TEMP:  61; 6HR PCP:  0.04;

FARGO          CLOUDY    73  69  87 E9        29.96F
WAHPETON ARPT  CLOUDY    70  64  83 E8        29.95F
$$

 ***** WEATHER ACROSS CENTRAL AND WESTERN NORTH DAKOTA  *****

CITY           SKY/WX    TMP DP  RH WIND       PRES   REMARKS
BISMARCK       HVY RAIN  61  60  97 NE17      29.91F FOG
6HR MIN TEMP:  60; 6HR MAX TEMP:  62; 6HR PCP:  0.19;

MINOT          LGT RAIN  57  55  93 N12       30.03F FOG
6HR MIN TEMP:  56; 6HR MAX TEMP:  57; 6HR PCP:  0.02;

JAMESTOWN      CLOUDY    64  62  93 E14       29.95F
6HR MIN TEMP:  60; 6HR MAX TEMP:  64; 6HR PCP:  0.10;

MINOT AFB      LGT RAIN  56  56  99 NE13      30.04F
GARRISON         N/A     58  56  93 NE9G18    29.99F
WILLISTON      LGT RAIN  56  53  90 NE15      30.03F
6HR MIN TEMP:  56; 6HR MAX TEMP:  58; 6HR PCP:  0.19;

DICKINSON      LGT RAIN  57  56  96 NE18      29.92F FOG
6HR MIN TEMP:  57; 6HR MAX TEMP:  59; 6HR PCP:  0.39;

HETTINGER      RAIN      60  58  92 NE20G26   29.89F FOG
6HR MIN TEMP:  59; 6HR MAX TEMP:  62;

$$

 *****  OTHER AIRPORT OBSERVATIONS IN OUR AREA  *****

CITY           SKY/WX    TMP DP  RH WIND       PRES   REMARKS
WALHALLA       FOG       59  59 100 N10       30.08F VSB 3/4
GRAFTON AIRPOR CLOUDY    64  63  94 NE10      30.03F
VALLEY CITY AR CLOUDY    64  64 100 E12G17    29.96F FOG
CANDO          MOCLDY    59  59 100 NE13      30.04F
CAVALIER APRT  CLOUDY    63  61  94 N12       30.06F
GWINNER        CLOUDY    70  70 100 E14G20    29.94F
ROLLA          HVY RAIN  57  57 100 NE15      30.09F VSB 3/4
 ***** THE ABOVE OBSERVATIONS ARE NON NWS ARE NOT QUALITY
       CONTROLLED AND MAY MIS-REPORT RAIN FOR SNOW...
$$

  *****  WEATHER ACROSS NORTHERN MINNESOTA  *****

CITY           SKY/WX    TMP DP  RH WIND       PRES   REMARKS
FLAG ISLAND    PTSUNNY   73  64  73 E7        30.07F
WARROAD        CLOUDY    72  68  88 NE10      30.07F
ROSEAU         CLOUDY    73  68  83 E13       30.05F
HALLOCK        CLOUDY    72  66  83 NE8       30.03F
THF RVR FALLS  CLOUDY    72  66  83 E9        30.03F
6HR MIN TEMP:  64; 6HR MAX TEMP:  72;

BAUDETTE       CLOUDY    73  66  78 E8        30.06F
6HR MIN TEMP:  64; 6HR MAX TEMP:  73;

WASKISH        CLOUDY    73  66  78 E9        30.05F
CROOKSTON      CLOUDY    73  68  83 E10       30.00F
$$
  *****  WEATHER ACROSS CENTRAL AND WEST MINNESOTA  *****

CITY           SKY/WX    TMP DP  RH WIND       PRES   REMARKS
FOSSTON        CLOUDY    70  64  83 E5        30.03S
BEMIDJI        CLOUDY    71  64  80 E9        30.03F
PARK RAPIDS    CLOUDY    70  63  78 E10       30.00F
6HR MIN TEMP:  66; 6HR MAX TEMP:  70;

ELBOW LAKE     CLOUDY    69  65  87 E10G16    29.96F
6HR MIN TEMP:  68; 6HR MAX TEMP:  69;

WADENA         CLOUDY    66  63  88 E6        30.00S
DETROIT LAKES  CLOUDY    70  64  83 E9        30.00F
MOORHEAD       DRIZZLE   73  73 100 E6        29.97F
FERGUS FALLS   CLOUDY    72  64  78 E10G18    29.95F
MORRIS MN      DRIZZLE   70  66  88 E9        29.93F
STAPLES        CLOUDY    66  63  88 E6        30.00R
$$
  *****  WEATHER ELSEWHERE ACROSS MINNESOTA  *****

CITY           SKY/WX    TMP DP  RH WIND       PRES   REMARKS
DULUTH         CLOUDY    66  62  87 NE9       30.04F FOG
6HR MIN TEMP:  63; 6HR MAX TEMP:  66; 6HR PCP: TRACE;

INTRNTL FALLS  CLOUDY    74  62  66 E8        30.06F
6HR MIN TEMP:  64; 6HR MAX TEMP:  75;

ELY            CLOUDY    72  61  68 E9        30.07F
CLOQUET        CLOUDY    64  63  94 E10       30.04S FOG
WHEATON        DRIZZLE   68  64  88 E13       29.95F
BRAINERD       CLOUDY    69  64  84 E8        30.00F
6HR MIN TEMP:  62; 6HR MAX TEMP:  69;

HIBBING        CLOUDY    72  63  73 E7        30.06F
6HR MIN TEMP:  65; 6HR MAX TEMP:  72;

ALEXANDRIA     CLOUDY    67  64  90 E9        29.99S
6HR MIN TEMP:  66; 6HR MAX TEMP:  68; 6HR PCP: TRACE;

SAINT CLOUD    CLOUDY    74  66  76 E6        29.97R
6HR MIN TEMP:  65; 6HR MAX TEMP:  73;

MINNEAPOLIS    CLOUDY    72  68  87 E9        29.96R
6HR MIN TEMP:  70; 6HR MAX TEMP:  72; 6HR PCP: TRACE;

$$

  *****  WEATHER ACROSS SOUTH DAKOTA  *****

CITY           SKY/WX    TMP DP  RH WIND       PRES   REMARKS
SIOUX FALLS    CLOUDY    78  70  76 S15       29.88S
6HR MIN TEMP:  69; 6HR MAX TEMP:  79; 6HR PCP: TRACE;

BROOKINGS      NOT AVBL
WATERTOWN      CLOUDY    71  66  84 SE13      29.91R
6HR MIN TEMP:  68; 6HR MAX TEMP:  72; 6HR PCP:  0.04;

HURON          CLOUDY    77  68  73 SE13G21   29.83F
6HR MIN TEMP:  70; 6HR MAX TEMP:  77; 6HR PCP:  0.01;

SISSETON         N/A     70  68  93 E12       29.90F
ABERDEEN       CLOUDY    69  67  93 E15       29.87F
6HR MIN TEMP:  63; 6HR MAX TEMP:  69; 6HR PCP:  0.07;

MITCHELL       PTSUNNY   78  70  76 SE13      29.83F
PIERRE         CLOUDY    72  67  84 SE16      29.77F
6HR MIN TEMP:  67; 6HR MAX TEMP:  73; 6HR PCP:  0.02;

MOBRIDGE       LGT RAIN  65  65 100 E16G29    29.80F FOG
RAPID CITY     PTSUNNY   71  63  75 NE6       29.84F
6HR MIN TEMP:  63; 6HR MAX TEMP:  72; 6HR PCP:  0.01;

$$

  *****  SOME WEATHER IN NEARBY STATES *****

CITY           SKY/WX    TMP DP  RH WIND       PRES   REMARKS
GLASGOW MT     RAIN      54  52  93 NE26G36   29.99F FOG
6HR MIN TEMP:  53; 6HR MAX TEMP:  56; 6HR PCP:  0.77;

GREAT FALLS MT RAIN      50  48  93 N15G25    30.14R FOG
6HR MIN TEMP:  48; 6HR MAX TEMP:  50; 6HR PCP:  1.29;

CHEYENNE WY    CLOUDY    69  50  50 SW7G17    29.98S
6HR MIN TEMP:  56; 6HR MAX TEMP:  72;

SCOTTSBLUFF NE SUNNY     79  59  50 VRB7      29.87F
6HR MIN TEMP:  61; 6HR MAX TEMP:  79;

OMAHA NE       PTSUNNY   83  72  69 SE7       29.86F
6HR MIN TEMP:  71; 6HR MAX TEMP:  83;

DES MOINES IA  CLOUDY    82  70  66 SE14      29.90R
6HR MIN TEMP:  72; 6HR MAX TEMP:  82; 6HR PCP:  0.02;

DAVENPORT IA   CLOUDY    71  69  93 SE8       29.97F
6HR MIN TEMP:  71; 6HR MAX TEMP:  76; 6HR PCP:  1.15;

CHICAGO IL     CLOUDY    83  73  72 NE9       30.00S
6HR MIN TEMP:  73; 6HR MAX TEMP:  86;

EAU CLAIRE WI  CLOUDY    76  72  87 E9        29.96F
6HR MIN TEMP:  68; 6HR MAX TEMP:  76;

LA CROSSE WI   LGT RAIN  74  72  93 SE3       29.95F
6HR MIN TEMP:  73; 6HR MAX TEMP:  76; 6HR PCP:  0.27;

$$

  *****  SOME NATIONAL WEATHER *****

CITY           SKY/WX    TMP DP  RH WIND       PRES   REMARKS
LA GUARDIA NY  PTSUNNY   73  56  54 NE12      30.09R
6HR MIN TEMP:  68; 6HR MAX TEMP:  74;

RALEIGH NC     PTSUNNY   84  71  65 CALM      29.96F
6HR MIN TEMP:  76; 6HR MAX TEMP:  84;

ATLANTA GA     MOSUNNY   91  70  49 NW12G17   30.00F HX  96
6HR MIN TEMP:  76; 6HR MAX TEMP:  91;

NEW ORLEANS LA MOSUNNY   93  76  57 N8        30.02F HX 105
6HR MIN TEMP:  79; 6HR MAX TEMP:  93;

OKLAHOMA CITY  MOSUNNY   96  58  27 S14G24    29.96F HX  95
6HR MIN TEMP:  68; 6HR MAX TEMP:  96;

ALBUQUERQUE NM MOSUNNY   71  55  56 SW7       30.17F
6HR MIN TEMP:  58; 6HR MAX TEMP:  71;

SALT LAKE CITY MOSUNNY   65  47  52 SW5       30.06S
6HR MIN TEMP:  54; 6HR MAX TEMP:  66; 6HR PCP: TRACE;

LOS ANGELES CA MOSUNNY   74  60  61 W9        29.97F
6HR MIN TEMP:  67; 6HR MAX TEMP:  74;

BOISE ID       SUNNY     68  44  42 N12       30.06S


USA.gov is the U.S. government's official web portal to all federal, state and local government web resources and services.